Location: Gleizolles
(44.4833°N, 6.7667°E)
Time: 22:21:18
(UTC+00:00)

Explorer 7 - Pass Details

Date: 19 June 2024
Orbit: 465 x 619 km, 50.3° (Epoch: 19 July)

Event Time Altitude Azimuth Distance (km) Brightness Sun altitude
Rises 12:15:32 0° 247° (WSW) 2,637 10.5 67.3°
Reaches altitude 10° 12:17:48 10° 250° (WSW) 1,725 9.8 67.2°
Maximum altitude 12:21:41 73° 335° (NNW) 520 7.8 66.8°
Drops below altitude 10° 12:25:25 10° 61° (ENE) 1,657 9.2 66.5°
Sets 12:27:33 0° 63° (ENE) 2,522 10.0 66.3°
